Weather History for Albert Lea, MN

Change the Weather History Date:

Thursday, April 3, 2014

  Actual Average Record
Temperature  
Mean Temperature 34 °F -  
Max Temperature 35 °F 46 °F 69 °F (2005)
Min Temperature 32 °F 30 °F 19 °F (2002)
Degree Days  
Heating Degree Days 32    
Moisture  
Dew Point 33 °F    
Average Humidity 96    
Maximum Humidity 100    
Minimum Humidity 75    
Precipitation  
Precipitation 0.31 in - - ()
Sea Level Pressure  
Sea Level Pressure 29.82 in    
Wind  
Wind Speed 12 mph (ENE)    
Max Wind Speed 21 mph    
Max Gust Speed 28 mph    
Visibility 6 miles    
Events Snow    
Averages and records for this station are not official NWS values.
T = Trace of Precipitation, MM = Missing Value Source: NWS Daily Summary

Daily Weather History Graph

Daily Weather History Graph

Search for Another Location

Airport:

Trip Planner

Search our weather history database for the weather conditions in past years. The results will help you decide how hot, cold, wet, or windy it might be!

Date:

Astronomy

Apr. 03, 2014 Rise Set
Actual Time 6:51 AM CDT 7:42 PM CDT
Civil Twilight 6:22 AM CDT 8:11 PM CDT
Nautical Twilight 5:47 AM CDT 8:46 PM CDT
Astronomical Twilight 5:11 AM CDT 9:22 PM CDT
Moon 9:14 AM CDT (4/3) No Moon Set
Length of Visible Light 13h 49m
Length of Day
12h 51m
Waxing Crescent, 17% of the Moon is Illuminated
Apr 3
Waxing Crescent
Apr 7
First Quarter
Apr 15
Full
Apr 22
Last Quarter
Apr 29
New

Hourly Weather History & Observations

Time (CDT) Temp. Windchill Dew Point Humidity Pressure Visibility Wind Dir Wind Speed Gust Speed Precip Events Conditions
12:09 AM 35.6 °F 29.2 °F 32.0 °F 87% 29.98 in 10.0 mi ENE 8.1 mph - 0.01 in   Drizzle
12:30 AM 35.6 °F 29.2 °F 32.0 °F 87% 29.98 in 7.0 mi ENE 8.1 mph - 0.01 in   Light Drizzle
12:50 AM 35.6 °F 29.9 °F 32.0 °F 87% 30.00 in 5.0 mi NNE 6.9 mph - N/A   Drizzle
1:09 AM 35.6 °F 28.6 °F 32.0 °F 87% 29.99 in 5.0 mi NE 9.2 mph - 0.01 in Snow Light Snow
1:30 AM 33.8 °F 24.8 °F 33.8 °F 100% 29.95 in 3.0 mi ENE 12.7 mph - 0.01 in Snow Light Snow
1:50 AM 33.8 °F 22.2 °F 33.8 °F 100% 29.92 in 7.0 mi ENE 20.7 mph 24.2 mph N/A   Overcast
2:09 AM 35.6 °F 25.2 °F 33.8 °F 93% 29.91 in 10.0 mi ENE 18.4 mph 24.2 mph N/A   Overcast
2:30 AM 35.6 °F 25.9 °F 33.8 °F 93% 29.90 in 10.0 mi ENE 16.1 mph 24.2 mph N/A   Overcast
2:50 AM 35.6 °F 24.5 °F 33.8 °F 93% 29.91 in 10.0 mi ENE 20.7 mph 25.3 mph N/A   Overcast
3:10 AM 33.8 °F 22.5 °F 33.8 °F 100% 29.89 in 10.0 mi ENE 19.6 mph 24.2 mph N/A   Overcast
3:29 AM 33.8 °F 23.5 °F 33.8 °F 100% 29.89 in 10.0 mi ENE 16.1 mph 21.9 mph N/A   Overcast
3:49 AM 33.8 °F 23.9 °F 33.8 °F 100% 29.90 in 7.0 mi ENE 15.0 mph - N/A   Overcast
4:10 AM 33.8 °F 24.3 °F 33.8 °F 100% 29.89 in 7.0 mi East 13.8 mph 23.0 mph N/A   Overcast
4:29 AM 33.8 °F 23.2 °F 33.8 °F 100% 29.89 in 5.0 mi ENE 17.3 mph - N/A   Overcast
4:50 AM 33.8 °F 23.5 °F 33.8 °F 100% 29.88 in 5.0 mi ENE 16.1 mph - N/A   Overcast
5:10 AM 33.8 °F 24.3 °F 33.8 °F 100% 29.89 in 4.0 mi ENE 13.8 mph - N/A   Overcast
5:29 AM 33.8 °F 23.9 °F 33.8 °F 100% 29.88 in 5.0 mi ENE 15.0 mph 23.0 mph N/A   Overcast
5:50 AM 33.8 °F 23.5 °F 33.8 °F 100% 29.86 in 7.0 mi ENE 16.1 mph 21.9 mph N/A   Overcast
6:09 AM 33.8 °F 23.9 °F 32.0 °F 93% 29.87 in 7.0 mi East 15.0 mph 23.0 mph N/A   Overcast
6:30 AM 33.8 °F 22.8 °F 32.0 °F 93% 29.87 in 10.0 mi East 18.4 mph 27.6 mph N/A   Overcast
6:50 AM 33.8 °F 24.3 °F 32.0 °F 93% 29.86 in 10.0 mi East 13.8 mph 20.7 mph N/A   Overcast
7:09 AM 33.8 °F 24.3 °F 30.2 °F 87% 29.85 in 10.0 mi East 13.8 mph 18.4 mph N/A   Overcast
7:29 AM 33.8 °F 23.9 °F 30.2 °F 87% 29.85 in 10.0 mi East 15.0 mph - N/A   Overcast
7:50 AM 33.8 °F 25.3 °F 30.2 °F 87% 29.86 in 10.0 mi East 11.5 mph 17.3 mph N/A   Overcast
8:10 AM 33.8 °F 26.4 °F 30.2 °F 87% 29.85 in 10.0 mi East 9.2 mph - N/A   Overcast
8:29 AM 35.6 °F 28.0 °F 30.2 °F 81% 29.86 in 10.0 mi ENE 10.4 mph - N/A   Overcast
8:49 AM 35.6 °F 27.5 °F 30.2 °F 81% 29.84 in 10.0 mi ENE 11.5 mph - N/A   Overcast
9:10 AM 35.6 °F 27.5 °F 30.2 °F 81% 29.83 in 10.0 mi ENE 11.5 mph 17.3 mph N/A   Overcast
9:29 AM 35.6 °F 28.0 °F 28.4 °F 75% 29.84 in 10.0 mi East 10.4 mph - N/A   Overcast
9:49 AM 35.6 °F 27.5 °F 28.4 °F 75% 29.84 in 10.0 mi East 11.5 mph - N/A   Overcast
10:10 AM 33.8 °F 24.3 °F 30.2 °F 87% 29.84 in 7.0 mi East 13.8 mph 19.6 mph N/A   Overcast
10:29 AM 33.8 °F 23.5 °F 30.2 °F 87% 29.84 in 5.0 mi East 16.1 mph - N/A   Overcast
10:49 AM 33.8 °F 24.8 °F 32.0 °F 93% 29.84 in 2.5 mi East 12.7 mph 18.4 mph N/A   Overcast
11:10 AM 33.8 °F 23.9 °F 32.0 °F 93% 29.83 in 2.5 mi East 15.0 mph 19.6 mph N/A   Overcast
11:29 AM 33.8 °F 24.8 °F 32.0 °F 93% 29.83 in 3.0 mi East 12.7 mph 19.6 mph N/A   Overcast
11:50 AM 33.8 °F 25.3 °F 33.8 °F 100% 29.83 in 5.0 mi East 11.5 mph 18.4 mph N/A   Overcast
12:09 PM 33.8 °F 24.8 °F 33.8 °F 100% 29.83 in 5.0 mi East 12.7 mph - N/A   Overcast
12:29 PM 33.8 °F 26.4 °F 33.8 °F 100% 29.82 in 4.0 mi ENE 9.2 mph - N/A   Overcast
12:49 PM 33.8 °F 25.8 °F 33.8 °F 100% 29.82 in 2.5 mi ENE 10.4 mph - N/A   Overcast
1:09 PM 33.8 °F 26.4 °F 33.8 °F 100% 29.81 in 4.0 mi ENE 9.2 mph 18.4 mph N/A   Overcast
1:30 PM 33.8 °F 24.8 °F 33.8 °F 100% 29.80 in 1.2 mi ENE 12.7 mph - N/A   Overcast
1:49 PM 33.8 °F 25.8 °F 33.8 °F 100% 29.80 in 1.2 mi ENE 10.4 mph - N/A   Overcast
2:10 PM 33.8 °F 24.8 °F 33.8 °F 100% 29.78 in 1.5 mi NE 12.7 mph - N/A   Overcast
2:30 PM 33.8 °F 25.3 °F 33.8 °F 100% 29.78 in 1.5 mi ENE 11.5 mph - N/A   Overcast
2:49 PM 33.8 °F 24.8 °F 33.8 °F 100% 29.76 in 1.2 mi ENE 12.7 mph - N/A   Overcast
3:10 PM 33.8 °F 24.8 °F 33.8 °F 100% 29.75 in 1.8 mi ENE 12.7 mph - N/A   Overcast
3:29 PM 33.8 °F 25.3 °F 33.8 °F 100% 29.75 in 2.5 mi NE 11.5 mph 17.3 mph 0.02 in   Overcast
3:50 PM 33.8 °F 25.8 °F 33.8 °F 100% 29.75 in 5.0 mi NE 10.4 mph - N/A   Overcast
4:10 PM 33.8 °F 27.0 °F 33.8 °F 100% 29.76 in 3.0 mi NE 8.1 mph - N/A   Overcast
4:29 PM 33.8 °F 26.4 °F 33.8 °F 100% 29.76 in 1.2 mi NE 9.2 mph - 0.03 in   Overcast
4:50 PM 33.8 °F 24.8 °F 33.8 °F 100% 29.76 in 2.0 mi NE 12.7 mph - N/A   Overcast
5:10 PM 33.8 °F 25.3 °F 33.8 °F 100% 29.75 in 2.0 mi NE 11.5 mph - 0.02 in   Overcast
5:29 PM 33.8 °F 24.8 °F 33.8 °F 100% 29.73 in 3.0 mi NNE 12.7 mph - 0.04 in   Overcast
5:50 PM 33.8 °F 25.8 °F 33.8 °F 100% 29.75 in 4.0 mi NNE 10.4 mph - N/A   Overcast
6:09 PM 33.8 °F 25.3 °F 33.8 °F 100% 29.74 in 1.0 mi NE 11.5 mph - 0.08 in Snow Light Snow
6:49 PM 33.8 °F 25.3 °F 33.8 °F 100% 29.73 in 4.0 mi NNE 11.5 mph - N/A   Overcast
7:09 PM 32.0 °F 24.2 °F 32.0 °F 100% 29.73 in 3.0 mi NNE 9.2 mph - 0.01 in Snow Light Snow
7:29 PM 32.0 °F 23.6 °F 32.0 °F 100% 29.73 in 3.0 mi NNE 10.4 mph - 0.02 in Snow Light Snow
7:49 PM 32.0 °F 22.5 °F 32.0 °F 100% 29.72 in 3.0 mi NNE 12.7 mph - N/A   Overcast
8:10 PM 32.0 °F 23.6 °F 32.0 °F 100% 29.72 in 7.0 mi NNE 10.4 mph - 0.01 in   Overcast
8:29 PM 32.0 °F 24.8 °F 32.0 °F 100% 29.72 in 7.0 mi North 8.1 mph - 0.01 in Snow Light Snow
8:49 PM 32.0 °F 25.6 °F 32.0 °F 100% 29.73 in 2.0 mi NNE 6.9 mph - 0.02 in   Overcast
9:10 PM 32.0 °F 26.4 °F 32.0 °F 100% 29.74 in 1.5 mi North 5.8 mph - 0.07 in   Overcast
9:29 PM 32.0 °F 25.6 °F 32.0 °F 100% 29.73 in 5.0 mi NNE 6.9 mph - 0.09 in   Overcast
10:49 PM 32.0 °F 24.2 °F 32.0 °F 100% 29.69 in 4.0 mi North 9.2 mph - N/A   Overcast
11:10 PM 32.0 °F 24.2 °F 32.0 °F 100% 29.68 in 4.0 mi North 9.2 mph - N/A   Overcast
11:29 PM 32.0 °F 26.4 °F 32.0 °F 100% 29.69 in 7.0 mi NNE 5.8 mph - N/A   Overcast
11:49 PM 32.0 °F 24.2 °F 32.0 °F 100% 29.66 in 7.0 mi NNE 9.2 mph - N/A   Overcast